This is the latest recevied weather packets stored in our database for station/object N5RPG. If no packets are shown the sender has not sent any weather packets the latest 10 day(s).
| Time | Temp. | Humidity | Pressure | Rain* | Wind** | Luminosity | Snow |
|---|---|---|---|---|---|---|---|
| 1777413162 | 28.33° C | 78% | 1011.1 hPa | 0 mm | - | 80 W/m² | - |
| 1777412858 | 28.33° C | 77% | 1010.9 hPa | 0 mm | - | 98 W/m² | - |
| 1777412558 | 28.89° C | 76% | 1010.9 hPa | 0 mm | - | 109 W/m² | - |
| 1777412255 | 28.89° C | 75% | 1010.8 hPa | 0 mm | - | 111 W/m² | - |
| 1777411951 | 28.89° C | 75% | 1011 hPa | 0 mm | - | 116 W/m² | - |
| 1777411650 | 28.89° C | 74% | 1011 hPa | 0 mm | - | 126 W/m² | - |
| 1777411346 | 28.89° C | 74% | 1010.8 hPa | 0 mm | - | 139 W/m² | - |
| 1777411044 | 29.44° C | 74% | 1010.5 hPa | 0 mm | - | 148 W/m² | - |
| 1777410740 | 29.44° C | 72% | 1010.7 hPa | 0 mm | - | 169 W/m² | - |
| 1777410434 | 29.44° C | 72% | 1010.9 hPa | 0 mm | - | 204 W/m² | - |
| 1777410133 | 29.44° C | 71% | 1010.9 hPa | 0 mm | - | 237 W/m² | - |
| 1777409833 | 29.44° C | 71% | 1011.4 hPa | 0 mm | - | 268 W/m² | - |
| 1777409529 | 29.44° C | 71% | 1011.5 hPa | 0 mm | - | 288 W/m² | - |
| 1777409224 | 30° C | 70% | 1011.4 hPa | 0 mm | - | 315 W/m² | - |
| 1777408920 | 30° C | 69% | 1011.9 hPa | 0 mm | - | 387 W/m² | - |
| 1777408617 | 30.56° C | 68% | 1011.8 hPa | 0 mm | - | 515 W/m² | - |
| 1777408313 | 30.56° C | 68% | 1011.9 hPa | 0 mm | - | 610 W/m² | - |
| 1777408012 | 30° C | 69% | 1011.9 hPa | 0 mm | - | 646 W/m² | - |
| 1777407709 | 30° C | 68% | 1012 hPa | 0 mm | - | 446 W/m² | - |
| 1777407404 | 30.56° C | 69% | 1012 hPa | 0 mm | - | 557 W/m² | - |
| 1777407099 | 30° C | 71% | 1012.2 hPa | 0 mm | - | 765 W/m² | - |
| 1777406795 | 30° C | 70% | 1012.1 hPa | 0 mm | - | 597 W/m² | - |
| 1777406491 | 29.44° C | 71% | 1012.1 hPa | 0 mm | - | 544 W/m² | - |
| 1777406187 | 29.44° C | 72% | 1012.1 hPa | 0 mm | - | 456 W/m² | - |
| 1777405886 | 29.44° C | 70% | 1012.2 hPa | 0 mm | - | 375 W/m² | - |
* Rain latest hour (hover to see other rain measurements)
** Current wind speed in m/s (hover to see current wind gust speed)